Simultaneous Nadir Overpasses (SNOs) Predictions

Prediction of SNOs between AURA and NPP Satellite Orbit:

Table of predicted SNOs for the next 14.0 days since TLE Epoch: 8/17/2024
Index Date (AURA) Time (AURA) Lat,Lon (AURA) SZA (AURA ) Date (NPP) Time (NPP) Lat,Lon (NPP) SZA (NPP ) Distance(km) Time Diff (sec)
1 08/19/2024 08:33:54 80.75, -37.59 77.61 08/19/2024 08:33:07 80.75, -37.46 77.62 2.49 47
2 08/19/2024 09:23:15 -80.81, 130.79 102.50 08/19/2024 09:23:50 -80.80, 130.67 102.50 2.25 35
3 08/21/2024 21:28:08 80.71, 128.39 78.50 08/21/2024 21:27:04 80.70, 128.22 78.56 2.94 64
4 08/21/2024 22:17:28 -80.79, -62.89 101.67 08/21/2024 22:17:45 -80.79, -62.92 101.68 0.54 17
5 08/24/2024 11:11:38 -80.79, 103.58 100.85 08/24/2024 11:11:39 -80.80, 103.70 100.87 2.36 1
6 08/27/2024 00:05:46 -80.78, -90.14 99.98 08/27/2024 00:05:34 -80.78, -90.15 99.97 0.28 12
7 08/27/2024 00:55:06 80.84, 78.35 79.91 08/27/2024 00:56:15 80.84, 78.31 79.87 0.79 69
8 08/29/2024 12:59:50 -80.77, 76.29 99.11 08/29/2024 12:59:27 -80.77, 76.21 99.08 1.47 23



Historial Predications of SNOs between AURA and NPP
